Regional Weather Roundup
Issued by NWS

Home | Current Version | Previous Version | Text Only | Print | Product List | Glossary On
Versions: 1 2 3 4 5 6 7 8 9 10 11 12 13 14 15 16 17 18 19 20 21 22 23 24 25 26 27
000
ASUS42 KKEY 161710
RWRKEY

FLORIDA REGIONAL WEATHER ROUNDUP FOR THE FLORIDA KEYS
NATIONAL WEATHER SERVICE KEY WEST FLORIDA
1200 PM EST TUE JAN 16 2018

...SOUTH FLORIDA AND THE KEYS...

CITY           SKY/WX    TMP DP  RH WIND       PRES   REMARKS
FORT MYERS     FAIR      73  52  47 E10G18    30.30F
SW REGIONAL AP FAIR      72  52  49 E15       30.31F
NAPLES         FAIR      73  51  46 NE16      30.30F
MIAMI          FAIR      75  54  47 NE12G18   30.28F
WEST KENDALL   FAIR      74  53  48 NE14      30.27F
HOMESTEAD      FAIR      74  60  62 NE15G22   30.27F
MARATHON       FAIR      72  59  63 NE14      30.24F
KEY WEST INTL  FAIR      70  59  68 NE14G24   30.25F

...INTERNATIONAL WEATHER...

CITY           SKY/WX    TMP DP  RH WIND       PRES   REMARKS
NASSAU BAHAMAS PTSUNNY   81  68  65 N14       30.20F
CANCUN MEXICO  CLOUDY    77  59  53 E7        30.22F
COZUMEL MEXICO CLOUDY    77  57  50 NE9       30.20S

ADJACENT COASTAL WATERS...

STATION/POSITION TIME  SKY/WX   TEMP    WIND        PRES    WAVE
                                AIR SEA DIR/SP/G            HT/PER
                 (UTC)          (F)     (DEG/KT/KT) (MB)    (FT/S)
PULASKI SHOAL LI 1700            68      70/ 22/ 24 1024.8F
SAND KEY         1650            67                 1024.6F
LONG KEY         1700            67 65   50/ 12/ 13 1024.2F
MOLASSES REEF    1700            70 72   40/ 20/ 22 1024.1F
FOWEY ROCKS      1700            69 73   30/ 18/ 20 1025.6F
Buoy 42097       1630               72                N/A     6/ 6

$$




USA.gov is the U.S. government's official web portal to all federal, state and local government web resources and services.